TimeHST,TemperatureF,Dew PointF,Humidity,Sea Level PressureIn,VisibilityMPH,Wind Direction,Wind SpeedMPH,Gust SpeedMPH,PrecipitationIn,Events,Conditions,WindDirDegrees,DateUTC
12:57 AM,76.1,66.9,73,30.02,10.0,NE,3.5,-,N/A,,Overcast,50,2013-08-19 10:57:00
1:57 AM,76.1,69.1,79,30.00,10.0,NE,6.9,-,N/A,,Mostly Cloudy,40,2013-08-19 11:57:00
2:57 AM,76.1,70.0,81,29.99,10.0,Calm,Calm,-,N/A,,Scattered Clouds,0,2013-08-19 12:57:00
3:57 AM,78.1,70.0,76,29.97,10.0,ENE,4.6,-,N/A,,Scattered Clouds,60,2013-08-19 13:57:00
4:57 AM,75.7,70.0,82,29.98,10.0,Calm,Calm,-,N/A,,Scattered Clouds,0,2013-08-19 14:57:00
5:57 AM,75.4,69.1,81,29.98,10.0,East,3.5,-,N/A,,Scattered Clouds,80,2013-08-19 15:57:00
6:57 AM,75.4,68.0,78,29.99,10.0,East,4.6,-,N/A,,Scattered Clouds,100,2013-08-19 16:57:00
7:57 AM,78.4,68.0,70,30.02,10.0,East,6.9,-,N/A,,Scattered Clouds,90,2013-08-19 17:57:00
8:57 AM,80.2,66.9,64,30.03,10.0,NE,8.1,-,N/A,,Scattered Clouds,50,2013-08-19 18:57:00
9:57 AM,80.6,66.9,63,30.03,10.0,ENE,8.1,-,N/A,,Scattered Clouds,60,2013-08-19 19:57:00
10:57 AM,82.4,66.9,59,30.03,10.0,ENE,8.1,-,N/A,,Scattered Clouds,70,2013-08-19 20:57:00
11:57 AM,82.4,66.0,57,30.02,10.0,NE,9.2,-,N/A,,Partly Cloudy,40,2013-08-19 21:57:00
12:57 PM,86.0,66.9,53,30.00,10.0,ENE,9.2,-,N/A,,Partly Cloudy,60,2013-08-19 22:57:00
1:57 PM,85.1,66.0,53,29.99,10.0,NE,8.1,-,N/A,,Clear,50,2013-08-19 23:57:00
2:57 PM,86.0,66.0,51,29.98,10.0,ENE,9.2,-,N/A,,Partly Cloudy,60,2013-08-20 00:57:00
3:57 PM,84.2,66.0,54,29.96,10.0,NE,8.1,-,N/A,,Scattered Clouds,50,2013-08-20 01:57:00
4:57 PM,84.2,66.9,56,29.96,10.0,ENE,6.9,-,N/A,,Scattered Clouds,60,2013-08-20 02:57:00
5:57 PM,84.0,66.9,56,29.96,10.0,ENE,4.6,-,N/A,,Partly Cloudy,60,2013-08-20 03:57:00
6:57 PM,78.8,66.0,65,29.97,10.0,ENE,4.6,-,N/A,,Clear,70,2013-08-20 04:57:00
7:57 PM,78.4,68.0,70,29.98,10.0,ENE,3.5,-,N/A,,Scattered Clouds,60,2013-08-20 05:57:00
8:57 PM,78.8,68.0,69,29.99,10.0,ENE,4.6,-,N/A,,Scattered Clouds,70,2013-08-20 06:57:00
9:57 PM,79.3,69.1,71,30.00,10.0,Variable,4.6,-,N/A,,Scattered Clouds,0,2013-08-20 07:57:00
10:57 PM,79.5,69.1,70,30.01,10.0,ESE,6.9,-,N/A,,Scattered Clouds,110,2013-08-20 08:57:00
11:57 PM,78.8,69.1,72,30.01,10.0,ESE,3.5,-,N/A,,Mostly Cloudy,110,2013-08-20 09:57:00